Change the Weather History Date:

Tuesday, July 16, 2013

  Actual Average Record
Temperature  
Mean Temperature 83 °F -  
Max Temperature 91 °F 92 °F 100 °F (1932)
Min Temperature 75 °F 71 °F 67 °F (1940)
Cooling Degree Days 18    
Growing Degree Days 33 (Base 50)    
Moisture  
Dew Point 72 °F    
Average Humidity 65    
Maximum Humidity 100    
Minimum Humidity 46    
Precipitation  
Precipitation 0.18 in - - ()
Sea Level Pressure  
Sea Level Pressure 30.15 in    
Wind  
Wind Speed 7 mph (ENE)    
Max Wind Speed 20 mph    
Max Gust Speed 34 mph    
Visibility 10 miles    
Events Rain    
Averages and records for this station are not official NWS values.
T = Trace of Precipitation, MM = Missing Value Source: NWS Daily Summary

Daily Weather History Graph

Daily Weather History Graph

Search for Another Location

Airport or City:

Trip Planner

Search our weather history database for the weather conditions in past years. The results will help you decide how hot, cold, wet, or windy it might be!

Date:

Astronomy

Jul. 16, 2013 Rise Set
Actual Time 6:42 AM EDT 8:26 PM EDT
Civil Twilight 6:16 AM EDT 8:52 PM EDT
Nautical Twilight 5:45 AM EDT 9:23 PM EDT
Astronomical Twilight 5:12 AM EDT 9:56 PM EDT
Moon 2:18 PM EDT (7/16) 12:56 AM EDT (7/16)
Length of Visible Light 14h 36m
Length of Day
13h 43m
First Quarter, 56% of the Moon is Illuminated
Jul 16
First Quarter
Jul 22
Full
Jul 29
Last Quarter
Aug 6
New
Aug 14
First Quarter

Hourly Weather History & Observations

Time (EDT) Temp. Heat Index Dew Point Humidity Pressure Visibility Wind Dir Wind Speed Gust Speed Precip Events Conditions
12:15 AM 78.8 °F - 78.8 °F 100% 30.14 in 10.0 mi East 5.8 mph - N/A   Scattered Clouds
12:35 AM 78.8 °F - - N/A% 30.14 in 10.0 mi East 5.8 mph - N/A   Mostly Cloudy
12:55 AM 77.0 °F - - N/A% 30.14 in 10.0 mi East 5.8 mph - N/A   Clear
1:15 AM 77.0 °F - - N/A% 30.13 in 10.0 mi East 8.1 mph - N/A   Clear
1:35 AM 77.0 °F - - N/A% 30.13 in 10.0 mi East 6.9 mph - N/A   Clear
1:55 AM 77.0 °F - - N/A% 30.13 in 10.0 mi East 4.6 mph - N/A   Clear
2:15 AM 77.0 °F - - N/A% 30.13 in 10.0 mi East 4.6 mph - N/A   Clear
2:35 AM 77.0 °F - - N/A% 30.13 in 10.0 mi East 3.5 mph - N/A   Clear
2:55 AM 77.0 °F - - N/A% 30.12 in 10.0 mi East 4.6 mph - N/A   Clear
3:15 AM 77.0 °F - - N/A% 30.12 in 10.0 mi ENE 4.6 mph - N/A   Clear
3:35 AM 77.0 °F - - N/A% 30.12 in 10.0 mi ENE 5.8 mph - N/A   Clear
3:55 AM 77.0 °F - - N/A% 30.11 in 10.0 mi ENE 4.6 mph - N/A   Scattered Clouds
4:15 AM 75.2 °F - - N/A% 30.11 in 10.0 mi ENE 4.6 mph - N/A   Scattered Clouds
4:35 AM 75.2 °F - - N/A% 30.12 in 10.0 mi ENE 3.5 mph - N/A   Clear
4:55 AM 75.2 °F - - N/A% 30.12 in 10.0 mi ENE 6.9 mph - N/A   Clear
5:15 AM 75.2 °F - - N/A% 30.12 in 10.0 mi ENE 4.6 mph - N/A   Clear
5:35 AM 75.2 °F - - N/A% 30.12 in 10.0 mi ENE 6.9 mph - N/A   Clear
5:55 AM 75.2 °F - - N/A% 30.13 in 10.0 mi ENE 5.8 mph - N/A   Clear
6:15 AM 75.2 °F - - N/A% 30.13 in 10.0 mi ENE 4.6 mph - N/A   Clear
6:35 AM 75.2 °F - - N/A% 30.14 in 10.0 mi ENE 6.9 mph - N/A   Clear
6:55 AM 75.2 °F - - N/A% 30.14 in 10.0 mi ENE 6.9 mph - N/A   Clear
7:15 AM 75.2 °F - - N/A% 30.14 in 10.0 mi ENE 5.8 mph - N/A   Clear
7:35 AM 77.0 °F - - N/A% 30.14 in 10.0 mi ENE 4.6 mph - N/A   Clear
7:55 AM 78.8 °F - - N/A% 30.15 in 10.0 mi ENE 5.8 mph - N/A   Clear
8:15 AM 78.8 °F - - N/A% 30.15 in 10.0 mi East 6.9 mph - N/A   Clear
8:35 AM 80.6 °F - - N/A% 30.16 in 10.0 mi East 9.2 mph - N/A   Clear
8:55 AM 80.6 °F 88.1 °F 78.8 °F 94% 30.16 in 10.0 mi ENE 6.9 mph - N/A   Clear
9:15 AM 82.4 °F 89.5 °F 75.2 °F 79% 30.17 in 10.0 mi ESE 10.4 mph - N/A   Scattered Clouds
9:35 AM 82.4 °F 89.5 °F 75.2 °F 79% 30.17 in 10.0 mi ENE 12.7 mph - N/A   Mostly Cloudy
9:55 AM 84.2 °F 92.3 °F 75.2 °F 74% 30.17 in 10.0 mi ENE 13.8 mph 17.3 mph N/A   Mostly Cloudy
10:15 AM 84.2 °F 90.9 °F 73.4 °F 70% 30.17 in 10.0 mi East 8.1 mph - N/A   Mostly Cloudy
10:35 AM 86.0 °F 93.4 °F 73.4 °F 66% 30.17 in 10.0 mi East 10.4 mph 16.1 mph N/A   Scattered Clouds
10:55 AM 86.0 °F 91.8 °F 71.6 °F 62% 30.18 in 10.0 mi East 6.9 mph - N/A   Scattered Clouds
11:15 AM 86.0 °F 91.8 °F 71.6 °F 62% 30.17 in 10.0 mi East 6.9 mph 16.1 mph N/A   Mostly Cloudy
11:55 AM 89.6 °F 96.2 °F 71.6 °F 55% 30.17 in 10.0 mi East 12.7 mph 16.1 mph N/A   Scattered Clouds
12:15 PM 89.6 °F 96.2 °F 71.6 °F 55% 30.17 in 10.0 mi ESE 9.2 mph 16.1 mph N/A   Scattered Clouds
12:35 PM 89.6 °F 93.4 °F 68.0 °F 49% 30.17 in 10.0 mi East 9.2 mph 17.3 mph N/A   Scattered Clouds
12:55 PM 89.6 °F 93.4 °F 68.0 °F 49% 30.17 in 10.0 mi East 13.8 mph 19.6 mph N/A   Mostly Cloudy
1:15 PM 91.4 °F 95.4 °F 68.0 °F 46% 30.15 in 10.0 mi East 8.1 mph 18.4 mph N/A   Scattered Clouds
1:35 PM 91.4 °F 95.4 °F 68.0 °F 46% 30.15 in 10.0 mi East 10.4 mph - N/A   Scattered Clouds
1:55 PM 89.6 °F 94.7 °F 69.8 °F 52% 30.15 in 10.0 mi East 9.2 mph - N/A   Scattered Clouds
2:15 PM 87.8 °F 92.6 °F 69.8 °F 55% 30.15 in 10.0 mi East 6.9 mph - N/A   Scattered Clouds
2:35 PM 91.4 °F 98.4 °F 71.6 °F 52% 30.15 in 10.0 mi East 11.5 mph 16.1 mph N/A   Clear
2:55 PM 80.6 °F 83.9 °F 69.8 °F 70% 30.17 in 10.0 mi SE 19.6 mph 34.5 mph N/A   Mostly Cloudy
3:15 PM 75.2 °F - 73.4 °F 94% 30.20 in 4.0 mi ESE 17.3 mph 28.8 mph 0.06 in Rain Heavy Rain
3:35 PM 75.2 °F - - N/A% 30.17 in 5.0 mi ESE 6.9 mph - 0.18 in Rain Light Rain
4:55 PM 75.2 °F - - N/A% 30.15 in 10.0 mi East 5.8 mph - N/A   Clear
5:15 PM 75.2 °F - - N/A% 30.15 in 10.0 mi ENE 5.8 mph - N/A   Clear
5:35 PM 75.2 °F - - N/A% 30.14 in 10.0 mi East 5.8 mph - N/A   Clear
5:55 PM 77.0 °F - - N/A% 30.16 in 10.0 mi NNE 5.8 mph - N/A   Clear
6:15 PM 77.0 °F - - N/A% 30.15 in 10.0 mi ESE 3.5 mph - N/A   Scattered Clouds
6:35 PM 77.0 °F - - N/A% 30.15 in 10.0 mi East 3.5 mph - N/A   Clear
6:55 PM 77.0 °F - - N/A% 30.14 in 10.0 mi East 3.5 mph - N/A   Clear
7:15 PM 77.0 °F - - N/A% 30.15 in 10.0 mi NE 5.8 mph - N/A   Clear
7:35 PM 77.0 °F - - N/A% 30.16 in 10.0 mi NE 4.6 mph - N/A   Clear
7:55 PM 77.0 °F - - N/A% 30.17 in 10.0 mi ENE 6.9 mph - N/A   Clear
8:15 PM 77.0 °F - - N/A% 30.17 in 10.0 mi ENE 4.6 mph - N/A   Clear
8:35 PM 75.2 °F - - N/A% 30.17 in 10.0 mi ENE 5.8 mph - N/A   Clear
8:55 PM 75.2 °F - - N/A% 30.17 in 10.0 mi NE 4.6 mph - N/A   Clear
9:15 PM 75.2 °F - - N/A% 30.17 in 10.0 mi NE 5.8 mph - N/A   Clear
9:35 PM 75.2 °F - - N/A% 30.18 in 10.0 mi NE 4.6 mph - N/A   Clear
9:55 PM 75.2 °F - - N/A% 30.18 in 10.0 mi ENE 5.8 mph - N/A   Clear
10:15 PM 75.2 °F - - N/A% 30.18 in 10.0 mi ENE 5.8 mph - N/A   Clear
10:35 PM 75.2 °F - - N/A% 30.19 in 10.0 mi NE 4.6 mph - N/A   Clear
10:55 PM 75.2 °F - - N/A% 30.19 in 10.0 mi ENE 5.8 mph - N/A   Clear
11:15 PM 75.2 °F - - N/A% 30.18 in 10.0 mi NE 4.6 mph - N/A   Clear
11:35 PM 75.2 °F - - N/A% 30.18 in 10.0 mi NE 4.6 mph - N/A   Clear
11:55 PM 75.2 °F - - N/A% 30.19 in 10.0 mi ENE 5.8 mph - N/A   Clear